Tracking 18840 objects as of 18-November-2017
HD Live streaming from Space Station
objects crossing your sky now

FLOCK 2EP-5

Track FLOCK 2EP-5 now!
10-day predictions
FLOCK 2EP-5 is classified as:


NORAD ID: 41567
Int'l Code: 1998-067JT
Perigee: 358.0 km
Apogee: 365.1 km
Inclination: 51.6 °
Period: 91.6 minutes
Semi major axis: 6732 km
RCS: Unknown
Launch date: November 20, 1998
Source: United States (US)
Launch site: ()
aabbcc
Your satellite tracking list
Your tracking list is empty




NASA's NSSDC Master Catalog

Two Line Element Set (TLE):
1 41567U 98067JR  17321.83634339  .00025567  00000-0  19887-3 0  9997
2 41567  51.6342 318.3695 0005242  17.3278 342.7898 15.71566701 83711
Source of the keplerian elements: AFSPC